Miscellaneous Local Product
Issued by NWS Hastings, NE

Home | Current Version | Previous Version | Graphics & Text | Print | Product List | Glossary On
Versions: 1 2 3 4 5 6 7 8 9 10 11 12 13 14 15 16 17 18 19 20 21 22 23 24 25 26 27 28 29 30 31 32 33 34 35 36 37 38 39 40 41 42 43 44 45 46 47 48 49 50
162
AXUS43 KGID 241502
MISGRI

GID CWA HOURLY WEATHER ROUNDUP
NATIONAL WEATHER SERVICE HASTINGS NE
900 AM CST FRI FEB 24 2017

NOTE: "FAIR" INDICATES FEW OR NO CLOUDS BELOW 12,000 FEET WITH NO
SIGNIFICANT WEATHER AND/OR OBSTRUCTIONS TO VISIBILITY.

...SOUTH CENTRAL NEBRASKA...

CITY           SKY/WX    TMP DP  RH WIND       PRES   REMARKS
GRAND ISLAND   FOG       20  19  96 N28G35    29.88R VSB 1/2 WCI   2
HASTINGS       SNOW      22  19  89 N24G36    29.86R VSB 1/2 WCI   5
KEARNEY        CLOUDY    21  18  86 N17       29.89R VSB 3/4 WCI   7
ORD            HAZE      20  14  77 N24G35    29.92R VSB 1   WCI   3
YORK           HVY SNOW  23  23 100 N16G26    29.82R VSB 1/4 WCI  10
AURORA         SNOW      22  20  93 N17G26    29.85R VSB 1/2 WCI   8
LEXINGTON      LGT SNOW  23  20  87 N22G31    29.92R VSB 1   WCI   8
HOLDREGE         N/A     22  20  90 N17G26    29.88R WCI   8
HEBRON         LGT SNOW  27  24  91 N14G22    29.83R WCI  15

...NEBRASKA PANHANDLE...

CITY           SKY/WX    TMP DP  RH WIND       PRES   REMARKS
CHADRON        LGT SNOW  21  18  88 NE12      30.04R FOG     WCI   9
ALLIANCE       CLOUDY    19  16  88 N14       29.97R FOG     WCI   6
SCOTTSBLUFF    CLOUDY    20  14  77 CALM      29.99R
SIDNEY         LGT SNOW  19  16  88 N12       29.95R FOG     WCI   7

...WESTERN AND NORTH CENTRAL NEBRASKA...

CITY           SKY/WX    TMP DP  RH WIND       PRES   REMARKS
VALENTINE      CLOUDY    18  12  77 N18G25    30.04R WCI   2
AINSWORTH      CLOUDY    18  15  87 N26       30.01S WCI   0
ONEILL         CLOUDY    20  16  85 N24G33    29.96R WCI   3
BROKEN BOW     FOG       20  16  84 N32G41    29.93R VSB 1   WCI   1
IMPERIAL       LGT SNOW  23  18  81 N18       29.96R WCI   9
NORTH PLATTE   LGT SNOW  24  18  77 N21G26    29.96R WCI   9
MCCOOK         LGT SNOW  25  22  88 N23       29.92R FOG     WCI  10

...EASTERN NEBRASKA...

CITY           SKY/WX    TMP DP  RH WIND       PRES   REMARKS
NORFOLK        FOG       21  17  84 N18G31    29.86R VSB 1   WCI   6
SO SIOUX CITY  FOG       25  22  88 N26G35    29.85R VSB 1/2 WCI   9
TEKAMAH        FOG       25  22  88 N31G38    29.80R VSB 1/4 WCI   8
COLUMBUS       CLOUDY    23  18  80 N22G33    29.84R VSB 3/4 WCI   8
ALBION         LGT SNOW  22  17  79 N22G29    29.88R WCI   6
OMAHA EPPLEY   FRZ RAIN  27  22  81 N25G35    29.75R WCI  12
OFFUTT AFB     FRZ RAIN  28  24  86 N13       29.75R WCI  17
MILLARD        LGT SNOW  28  25  86 N16G28    29.78R WCI  17
LINCOLN        LGT SNOW  27  24  89 N30G38    29.79R FOG     WCI  11
NEBRASKA CITY  MIX PCPN  30  30  99 N21G29    29.72R WCI  18
BEATRICE       MIX PCPN  28  27  94 N20G26    29.78R WCI  15
FALLS CITY     CLOUDY    33  30  88 N16G22    29.69R WCI  23

...NORTHERN KANSAS...

CITY           SKY/WX    TMP DP  RH WIND       PRES   REMARKS
GOODLAND       CLOUDY    22  19  89 N17G26    29.92R WCI   8
HILL CITY      LGT SNOW  27  23  85 N17G26    29.92R FOG     WCI  14
NORTON         LGT SNOW  25  19  80 NW24G30   29.89R WCI   9
PHILLIPSBURG   LGT SNOW  27  25  93 NW17G23   29.91R WCI  14
SMITH CENTER   LGT SNOW  23  21  93 N15G25    29.89R WCI  10
HAYS           LGT SNOW  28  24  85 NW15      29.89R FOG     WCI  16
RUSSELL        FLURRIES  28  25  88 NW21      29.86R WCI  15
CONCORDIA      LGT SNOW  28  26  92 N14G26    29.81R FOG     WCI  17
SALINA         MIX PCPN  33  30  88 NW18      29.82R FOG     WCI  22
TOPEKA         CLOUDY    37  37 100 W8        29.70R FOG     WCI  31



USA.gov is the U.S. government's official web portal to all federal, state and local government web resources and services.